Regional Weather Roundup
Issued by NWS Bismarck, ND

Home | Current Version | Previous Version | Text Only | Print | Product List | Glossary On
Versions: 1 2 3 4 5 6 7 8 9 10 11 12 13 14 15 16 17 18 19 20 21 22 23 24 25 26 27 28 29 30 31 32 33 34 35 36 37 38 39 40 41 42 43 44 45 46 47 48 49 50
000
ASUS43 KBIS 261520
RWRBIS

NWR BROADCAST TEXT
NATIONAL WEATHER SERVICE BISMARCK ND
1000 AM CDT THU MAR 26 2015

NOTE: "FAIR" INDICATES FEW OR NO CLOUDS BELOW 12,000 FEET WITH NO
SIGNIFICANT WEATHER AND/OR OBSTRUCTIONS TO VISIBILITY.


CITY           SKY/WX    TMP DP  RH WIND       PRES   REMARKS
WILLISTON      PTSUNNY   32  28  85 SE6       30.18R
MINOT          CLOUDY    29  23  78 E8        30.22R
MINOT AFB      CLOUDY    28  26  92 E8        30.22R
BISMARCK       PTSUNNY   31  25  78 E9        30.20R
DICKINSON      LGT SNOW  29  25  85 NE8       30.11R FOG
GARRISON         N/A     30  22  72 E10       30.19R
HETTINGER ARPT LGT SNOW  31  28  89 CALM      30.12R FOG
JAMESTOWN      CLOUDY    28  21  75 NE9       30.22R WCI  19
BEACH          PTSUNNY   32  32 100 S6        30.12S
CARRINGTON     CLOUDY    27  23  86 NE10      30.24S WCI  17
CROSBY         CLOUDY    32  32 100 E7        30.20S
HARVEY         CLOUDY    27  23  86 E9        30.24R WCI  17
HAZEN          PTSUNNY   32  27  80 E8        30.19S
LINTON         MIX PCPN  28  28 100 E6        30.18S
MANDAN         CLOUDY    32  25  74 E12       30.19R
OAKES            N/A     30  27  86 N12       30.21S
RUGBY          CLOUDY    25  23  93 E8        30.25R WCI  16
TIOGA          FAIR      32  32 100 E7        30.20S
WATFORD CITY   CLOUDY    30  27  86 SE6       30.15R
$$

CITY           SKY/WX    TMP DP  RH WIND       PRES   REMARKS
GRAND FORKS    MOSUNNY   27  17  66 N10       30.27R WCI  17
GRAND FORKS AF MOSUNNY   26  17  68 N14       30.28R WCI  14
DEVILS LAKE    SUNNY     25  16  68 NE5       30.24S WCI  19
FARGO          CLOUDY    26  17  68 N17       30.24R WCI  13
CANDO          CLOUDY    27  18  69 E5        30.26S
CAVALIER         N/A     23  19  86 N6        30.30R WCI  16
GWINNER          N/A     30  25  80 N14         N/A  WCI  20
ROLLA          CLOUDY    23  16  74 E5        30.25R WCI  17
WALHALLA         N/A     25  23  93 N6        30.30S WCI  18
$$

CITY           SKY/WX    TMP DP  RH WIND       PRES   REMARKS
ABERDEEN       CLOUDY    31  24  75 NE6       30.21S
MOBRIDGE       LGT SNOW  29  23  78 CALM      30.15R
BUFFALO          N/A     33  27  78 NE14      30.03R
RAPID CITY     CLOUDY    50  28  42 NW22G36   30.05F
GLASGOW        CLOUDY    33  30  88 SE10      30.12R
SIDNEY         CLOUDY    32  28  86 N3        30.18R
WOLF POINT     CLOUDY    34  32  92 E7        30.16R FOG
GLENDIVE       CLOUDY    36  30  80 CALM      30.14R
MILES CITY       N/A    N/A N/A N/A MISG      30.12R
BAKER          CLOUDY    34  30  85 E10       30.11R
$$

CITY           SKY/WX    TMP DP  RH WIND       PRES   REMARKS
BILLINGS       CLOUDY    48  33  56 S6        30.15S
GREAT FALLS    PTSUNNY   47  33  58 SW18      30.12S
REGINA         PTSUNNY   28  23  80 SE12      30.19R WCI  18
ESTEVAN        MOSUNNY   28  21  74 SE13      30.21R WCI  18
$$



USA.gov is the U.S. government's official web portal to all federal, state and local government web resources and services.